Regional Weather Roundup
Issued by NWS

Home | Current Version | Previous Version | Text Only | Print | Product List | Glossary Off
Versions: 1 2 3 4 5 6 7 8 9 10 11 12 13 14 15 16 17 18 19 20 21 22 23 24 25 26 27 28 29 30 31 32 33 34 35 36 37 38 39 40 41 42 43 44 45 46 47 48 49 50

610
ASUS45 KPSR 191510
RWRAZ

ARIZONA HOURLY REGIONAL WEATHER ROUNDUP
NATIONAL WEATHER SERVICE PHOENIX AZ
800 AM MST SUN NOV 19 2017

NOTE: FAIR INDICATES FEW OR NO CLOUDS BELOW 12,000 FEET WITH NO
SIGNIFICANT WEATHER AND/OR OBSTRUCTIONS TO VISIBILITY.

AZZ001>003-036-191600-
NORTHWEST ARIZONA

CITY           SKY/WX    TMP DP  RH WIND       PRES   REMARKS
BULLHEAD CITY  CLEAR     55  19  24 N23       30.14R
KINGMAN        PTCLDY    31   7  36 E7        30.20R WCI  24
$$

AZZ004>008-015-016-018-191600-
NORTH CENTRAL ARIZONA

CITY           SKY/WX    TMP DP  RH WIND       PRES   REMARKS
GRAND CANYON   PTCLDY    32   1  26 E5        30.29R WCI  27
WILLIAMS       PTCLDY    36   5  27 SE14      30.26R WCI  27
PRESCOTT       MOCLDY    27   4  37 CALM      30.23R
FLAGSTAFF      MOCLDY    17   3  54 CALM      30.29R
PAYSON           N/A     43  12  28 NE3       30.25R
PAGE           MOCLDY    31   6  35 CALM      30.34R
$$

AZZ009>014-017-191600-
NORTHEAST ARIZONA

CITY           SKY/WX    TMP DP  RH WIND       PRES   REMARKS
WINSLOW        CLOUDY   N/A N/A N/A E3        30.35R
SAINT JOHNS    CLOUDY    23   4  44 CALM      30.30R
WINDOW ROCK    CLOUDY     9   3  77 CALM      30.34S
SHOW LOW       PTSUNNY   27   1  33 CALM      30.31R
$$

AZZ540-542>544-546-548-191600-
GREATER PHOENIX AREA

CITY           SKY/WX    TMP DP  RH WIND       PRES   REMARKS
PHOENIX        PTCLDY    54  19  25 CALM      30.06R
BUCKEYE        CLEAR     50   9  18 N7        30.08R
GLENDALE       PTCLDY    52  16  24 CALM      30.08R
LUKE AFB       CLEAR     51  22  31 NW10      30.06R
DEER VALLEY    CLEAR     56  12  17 N3        30.06R
SCOTTSDALE     CLEAR     54  24  31 CALM      30.08R
MESA-FALCON    CLEAR     57  12  17 N13       30.08R
MESA-GATEWAY   PTCLDY    48  25  40 SE6       30.08R
CHANDLER       CLEAR     50  27  40 CALM      30.07R
$$

AZZ539-553-191600-
SOUTHWEST MARICOPA COUNTY AND PINAL COUNTY

CITY           SKY/WX    TMP DP  RH WIND       PRES   REMARKS
CASA GRANDE    NOT AVBL
$$

AZZ503-504-507>509-191600-
SOUTHEAST ARIZONA

CITY           SKY/WX    TMP DP  RH WIND       PRES   REMARKS
TUCSON         SUNNY     60  23  24 SE10      30.10R
DAVIS-MONTHAN  SUNNY     56  23  28 S9        30.08R
RYAN FIELD     SUNNY     61  27  27 MISG      30.08R
NOGALES        SUNNY     55  27  34 E5        30.11R
SIERRA VISTA   SUNNY     46  21  38 CALM      30.19R
DOUGLAS        SUNNY     47  22  37 N8        30.18R
SAFFORD        MOSUNNY   50  17  27 E9        30.23R
$$

AZZ532-191600-
SOUTHWEST ARIZONA

CITY           SKY/WX    TMP DP  RH WIND       PRES   REMARKS
YUMA           CLEAR     59  12  15 N12       30.06F
$$

CAZ041-043-047-048-061-525>527-560>570-191600-
SOUTHERN CALIFORNIA

CITY           SKY/WX    TMP DP  RH WIND       PRES   REMARKS
DOWNTOWN L.A.  CLEAR     57  23  26 NE3       30.05F
L.A. AIRPORT   PTCLDY    58  23  26 NE6       30.06S
SAN DIEGO      PTCLDY    53  45  74 N3        30.08R
BURBANK        CLEAR     49  30  48 N3        30.06F
ONTARIO        PTCLDY    48  30  49 NE5       30.08R
RIVERSIDE      CLEAR     51  25  36 NE6       30.09R
PALM SPRINGS   PTCLDY    51  13  21 N8        30.12R
EL CENTRO NAS  CLEAR     44  22  41 W8        30.11R
IMPERIAL       CLEAR     46  26  45 W5        30.08R
BLYTHE         CLEAR     47  10  22 CALM      30.12S
NEEDLES        CLEAR     54  15  21 NW5       30.15S
$$

NVZ020-UTZ003-191600-
SOUTHERN NEVADA-UTAH

CITY           SKY/WX    TMP DP  RH WIND       PRES   REMARKS
LAS VEGAS      PTCLDY    41  12  30 W3        30.21R
SALT LAKE CITY MOCLDY    31  23  72 SE3       30.28R
$$

NMZ009-TXZ055-191600-
NEW MEXICO-WEST TEXAS

CITY           SKY/WX    TMP DP  RH WIND       PRES   REMARKS
ALBUQUERQUE    CLOUDY    31   9  39 N9        30.34R WCI  23
EL PASO        PTSUNNY   44  17  33 N6        30.30S
$$


........................KEY........................
SKY/WX - SKY CONDITION/WEATHER
TMP    - TEMPERATURE IN FAHRENHEIT
DP     - DEW POINT IN FAHRENHEIT
RH     - RELATIVE HUMIDITY IN PERCENT
WIND   - DIRECTION AND SPEED IN MILES PER HOUR (MPH)
VRB    - VARIABLE WIND DIRECTION
PRES   - MEAN SEA LEVEL PRESSURE IN INCHES OF MERCURY
         F - FALLING PRESSURE   R - RISING PRESSURE
         S - STEADY PRESSURE
VSB    - VISIBILITY IN MILES
HX     - HEAT INDEX IN FAHRENHEIT
WCI    - WIND CHILL INDEX IN FAHRENHEIT
TC     - TEMPERATURE IN CELSIUS WHICH IS ALSO KNOWN AS
         TEMPERATURE IN CENTIGRADE
AFB    - AIR FORCE BASE
         LUKE AFB IS LUKE AIR FORCE BASE
         DAVIS-MONTHAN IS DAVIS-MONTHAN AIR FORCE BASE
NAS    - NAVAL AIR STATION
         EL CENTRO NAS IS EL CENTRO NAVAL AIR STATION
N/A    - NOT AVAILABLE





USA.gov is the U.S. government's official web portal to all federal, state and local government web resources and services.